Wind_Speed
59 60 61 62 63 65 67 67 66 65 64 65 63 62 59 57 59 63 61 58 58 56 55 53 49 54 51 53 49 55 60 64
63 65 68 70 72 73 74 74 75 73 67 67 64 61 61 60 60 64 66 61 57 59 60 57 54 54 50 51 50 50 52 55
67 68 69 71 73 73 70 68 68 59 56 55 52 58 60 63 62 62 66 67 63 59 61 59 57 57 53 55 51 53 40 48
66 63 62 58 54 53 52 54 55 56 54 51 52 53 59 61 62 63 63 66 67 63 60 63 60 57 54 54 53 46 45 45
55 54 50 47 45 48 58 62 63 57 56 56 54 54 54 53 56 53 60 64 68 66 62 61 60 57 54 53 54 48 44 37
45 45 45 44 44 47 46 49 56 62 61 59 46 47 47 50 51 45 48 56 64 67 66 64 60 56 54 53 55 52 48 48
38 35 38 40 42 39 40 40 41 42 43 40 46 41 44 40 36 40 39 45 49 56 59 58 59 57 53 54 54 52 52 51
40 38 31 35 33 35 38 35 37 41 41 37 43 44 42 38 39 35 37 44 47 45 52 57 57 56 53 51 53 52 51 51
35 28 29 29 36 34 42 41 35 36 41 36 41 46 42 41 41 35 33 35 39 45 45 45 54 57 58 55 55 56 56 55
36 34 36 32 26 22 24 30 39 43 44 42 44 46 44 44 38 40 40 41 43 50 55 53 52 55 59 60 57 57 57 57
36 39 39 38 41 36 35 29 23 27 35 38 37 35 41 49 36 40 42 48 48 50 51 49 48 50 57 61 59 58 58 58
37 38 40 42 42 44 47 47 37 33 37 32 28 28 31 33 38 45 50 49 40 41 41 43 46 48 51 56 60 57 57 58
37 37 39 41 41 43 43 43 44 43 42 41 39 35 36 43 46 46 42 44 44 47 48 46 45 47 52 53 55 56 56 56
37 38 39 41 42 40 41 43 41 42 42 42 46 43 44 42 43 40 42 45 48 51 52 52 52 51 49 51 54 56 56 55
40 40 40 35 34 34 36 37 35 35 34 33 32 32 34 36 40 41 44 48 53 57 57 58 57 56 56 54 54 56 56 55
42 40 35 32 30 29 31 30 29 30 30 30 28 30 34 35 39 43 46 43 39 38 37 35 35 42 50 55 58 57 56 57
39 39 39 38 37 36 34 32 30 31 29 29 28 31 32 34 35 33 31 32 38 37 35 33 34 34 35 36 46 56 56 56
44 44 45 44 42 41 39 37 35 32 28 25 25 21 21 22 22 25 29 29 28 28 30 30 27 25 27 24 24 31 40 47
36 36 39 39 38 35 33 31 29 25 19 12 9 8 7 6 5 4 5 12 18 17 13 9 8 8 11 20 18 20 25 30
Wind_Direction
272 270 268 269 271 272 272 272 271 270 270 270 269 267 264 261 262 263 264 261 262 262 263 263 265 265 267 271 269 275 286 260
276 276 277 277 276 275 273 271 270 270 270 269 267 262 260 258 256 257 258 259 257 260 262 262 262 263 263 264 266 270 278 277
279 279 279 277 275 275 274 274 272 271 271 270 265 257 255 255 254 253 254 256 257 254 257 260 260 262 263 265 265 266 285 269
282 282 282 279 277 276 273 271 267 267 264 259 252 248 256 255 257 257 254 253 254 254 254 256 259 259 260 262 265 267 267 270
287 286 282 279 270 266 269 268 265 271 265 268 260 259 260 263 264 266 258 256 256 256 254 254 256 257 256 257 261 263 260 244
287 282 278 275 277 270 270 272 272 269 271 275 258 268 266 262 261 266 267 260 255 256 257 258 256 255 253 251 255 258 256 253
292 286 279 275 274 275 280 274 272 270 268 271 264 265 266 263 263 267 272 273 276 273 264 261 260 257 254 250 252 255 256 255
291 290 272 274 277 276 282 277 275 271 276 275 268 271 268 264 269 267 272 273 274 270 270 270 269 267 257 249 249 252 253 255
298 292 267 267 271 287 277 273 271 277 267 274 281 276 271 271 273 269 271 277 272 267 267 268 271 268 266 257 249 251 253 254
289 278 278 278 270 283 294 281 268 267 278 275 274 290 269 259 268 272 276 272 269 267 271 271 270 269 265 262 254 247 250 252
285 286 288 290 286 275 269 283 269 284 291 288 283 292 271 261 266 272 280 279 280 276 271 267 263 258 263 264 260 253 247 248
289 290 292 290 290 288 287 292 286 277 285 272 273 279 275 277 282 276 272 274 282 280 281 274 266 256 253 258 260 259 253 249
288 288 287 287 287 285 285 287 284 286 286 274 271 268 274 276 277 277 281 282 282 281 281 278 272 266 255 251 251 253 255 254
284 282 284 286 284 282 277 277 279 279 280 276 271 274 280 280 281 284 284 283 282 280 277 275 272 268 262 258 254 251 250 249
286 289 292 287 281 280 279 277 278 282 286 287 284 282 283 285 286 288 287 288 287 287 286 280 270 264 261 258 254 252 251 250
289 290 289 290 286 283 280 280 281 281 282 282 286 290 284 291 296 295 296 297 296 293 289 285 276 267 262 260 258 253 249 250
290 291 291 290 288 286 286 287 289 288 292 297 302 297 307 304 303 309 305 292 304 293 291 280 278 272 260 261 253 250 249 250
293 293 293 293 291 290 291 293 293 296 298 300 299 313 318 315 312 305 303 295 303 291 294 294 277 270 261 257 250 245 247 254
292 292 293 294 294 292 289 287 288 288 285 292 311 307 284 259 253 285 271 293 281 291 294 291 269 242 238 245 239 246 245 248
Height
5735 5735 5735 5735 5735 5733 5731 5729 5729 5728 5728 5726 5725 5726 5728 5731 5731 5729 5728 5732 5734 5736 5735 5735 5736 5737 5740 5738 5741 5741 5740 5744
5720 5720 5719 5717 5715 5715 5713 5712 5711 5711 5711 5712 5711 5711 5712 5713 5714 5715 5713 5713 5717 5718 5720 5722 5725 5726 5728 5728 5730 5731 5729 5728
5701 5700 5699 5696 5693 5692 5691 5691 5690 5691 5691 5693 5695 5695 5696 5696 5696 5698 5699 5700 5703 5706 5707 5708 5712 5714 5717 5716 5718 5720 5718 5716
5684 5683 5681 5678 5676 5675 5674 5673 5674 5673 5674 5675 5679 5679 5680 5679 5679 5681 5684 5686 5688 5690 5694 5696 5698 5701 5704 5704 5705 5708 5708 5709
5668 5667 5665 5663 5662 5661 5659 5660 5660 5661 5662 5662 5664 5666 5667 5667 5667 5667 5668 5671 5673 5675 5679 5682 5685 5688 5691 5692 5694 5697 5700 5701
5657 5655 5653 5651 5649 5649 5648 5648 5647 5647 5648 5649 5650 5652 5654 5654 5655 5656 5655 5656 5657 5659 5662 5666 5669 5673 5677 5679 5681 5684 5688 5689
5646 5644 5642 5640 5639 5638 5636 5635 5634 5635 5636 5637 5638 5640 5641 5641 5643 5644 5645 5645 5645 5646 5648 5650 5652 5657 5661 5665 5667 5669 5673 5677
5636 5633 5631 5630 5628 5626 5626 5625 5626 5625 5624 5623 5627 5627 5629 5631 5632 5632 5634 5634 5635 5634 5635 5636 5639 5642 5646 5650 5653 5656 5660 5664
5627 5625 5623 5620 5619 5617 5617 5614 5616 5615 5614 5613 5614 5615 5618 5619 5621 5622 5622 5624 5624 5623 5623 5622 5623 5626 5630 5635 5640 5644 5647 5651
5621 5619 5616 5614 5612 5611 5610 5606 5605 5606 5607 5605 5605 5606 5605 5607 5610 5611 5611 5611 5612 5611 5610 5609 5609 5609 5613 5618 5625 5629 5632 5636
5611 5610 5608 5605 5604 5602 5602 5602 5600 5600 5599 5597 5595 5593 5596 5598 5596 5598 5597 5596 5595 5593 5591 5591 5593 5595 5597 5600 5606 5612 5617 5621
5602 5600 5598 5596 5595 5594 5594 5592 5594 5594 5593 5590 5588 5589 5589 5587 5587 5586 5584 5582 5579 5578 5577 5576 5577 5579 5582 5586 5590 5594 5600 5605
5593 5591 5589 5587 5585 5584 5583 5582 5582 5581 5581 5581 5580 5578 5576 5577 5576 5573 5569 5568 5567 5566 5565 5564 5564 5565 5566 5570 5575 5579 5584 5589
5582 5581 5579 5576 5575 5573 5572 5572 5571 5569 5568 5568 5566 5565 5566 5565 5564 5561 5559 5556 5554 5552 5550 5549 5549 5550 5552 5555 5559 5563 5567 5573
5573 5571 5570 5568 5566 5563 5562 5562 5561 5561 5560 5559 5558 5557 5555 5555 5554 5550 5546 5543 5538 5535 5532 5530 5531 5532 5534 5537 5541 5546 5551 5556
5563 5563 5560 5558 5556 5555 5555 5554 5554 5555 5554 5553 5548 5547 5548 5543 5539 5536 5532 5527 5524 5521 5517 5515 5513 5513 5515 5518 5523 5529 5535 5540
5553 5551 5549 5547 5546 5546 5546 5546 5546 5547 5544 5541 5537 5538 5532 5531 5528 5525 5522 5520 5516 5511 5508 5506 5504 5502 5502 5503 5505 5512 5519 5524
5541 5538 5536 5535 5535 5534 5534 5534 5535 5535 5534 5532 5531 5529 5526 5524 5522 5520 5518 5515 5511 5506 5502 5499 5495 5493 5493 5495 5496 5500 5506 5511
5531 5528 5525 5523 5522 5522 5523 5524 5525 5526 5526 5526 5525 5524 5524 5523 5520 5517 5514 5511 5509 5504 5500 5494 5490 5490 5488 5489 5491 5494 5498 5501